Regional Weather Roundup
Issued by NWS New Orleans/Baton Rouge, LA

Home | Current Version | Previous Version | Text Only | Print | Product List | Glossary Off
Versions: 1 2 3 4 5 6 7 8 9 10 11 12 13 14 15 16 17 18 19 20 21 22 23 24 25 26 27 28 29 30 31 32 33 34 35 36 37 38 39 40 41 42 43 44 45 46 47 48 49 50

094
ASUS44 KLIX 181810
RWRLIX
NEW ORLEANS REGIONAL WEATHER ROUNDUP
NATIONAL WEATHER SERVICE NEW ORLEANS LA
1200 PM CST THU DEC 18 2014

NOTE: "FAIR" INDICATES FEW OR NO CLOUDS BELOW 12,000 FEET WITH NO
      SIGNIFICANT WEATHER AND/OR OBSTRUCTIONS TO VISIBILITY.
      SKY/WX - SKY CONDITION AND SIGNIFICANT WEATHER.
      TMP - AIR TEMPERATURE.     DP    - DEWPOINT TEMPERATURE.
      RH  - RELATIVE HUMIDITY.   PRES  - PRESSURE.
      HI  - HEAT INDEX.          WCI   - WIND CHILL INDEX.

*  THESE STATIONS ARE NOT NWS OR FAA STATIONS AND ARE NOT UNDER
   NWS QUALITY CONTROL.

LAZ038-040-048-061>063-065>067-069-181900-
SOUTHEAST LOUISIANA

CITY           SKY/WX    TMP DP  RH WIND       PRES   REMARKS
N.O. AUDUBON     N/A     67  55  66 MISG        N/A
6HR MIN TEMP:  53; 6HR MAX TEMP:  67;

N.O. INTL ARPT PTSUNNY   67  52  58 SE8       30.14F
6HR MIN TEMP:  53; 6HR MAX TEMP:  69;

N.O. LAKEFRONT SUNNY     65  52  62 E12       30.15F
6HR MIN TEMP:  54; 6HR MAX TEMP:  65;

N.O. DOWNTOWN*   N/A     66  52  59 SE8       30.15F
6HR MIN TEMP:  54; 6HR MAX TEMP:  66;

SLIDELL        MOSUNNY   66  48  52 S9        30.14F
6HR MIN TEMP:  43; 6HR MAX TEMP:  66;

BATON ROUGE    LGT RAIN  62  52  69 SE7       30.13F
6HR MIN TEMP:  47; 6HR MAX TEMP:  63; 6HR PCP: TRACE;

BOOTHVILLE     PTSUNNY   63  56  78 E8        30.17F
6HR MIN TEMP:  55; 6HR MAX TEMP:  64;

BELLE CHASSE   PTSUNNY   66  52  60 SE12      30.15F
6HR MIN TEMP:  46; 6HR MAX TEMP:  67;

BOGALUSA*        N/A     65  46  50 SE6       30.16F
6HR MIN TEMP:  44; 6HR MAX TEMP:  65;

GALLIANO*      PTCLDY    69  55  60 MISG      30.14F
6HR MIN TEMP:  50; 6HR MAX TEMP:  69;

NEW ROADS*     CLOUDY    59  49  71 SE5       30.13F
6HR MIN TEMP:  48; 6HR MAX TEMP:  59;

GONZALES*      LGT RAIN  64  55  71 E5        30.13F
6HR MIN TEMP:  48; 6HR MAX TEMP:  64;

HAMMOND*       NOT AVBL
HOUMA*         SUNNY     70  57  64 E8        30.13F
PORT FOURCHON* CLEAR     66  57  72 E10       30.17F

$$

MSZ070-080>082-181900-
SOUTHERN MISSISSIPPI

CITY           SKY/WX    TMP DP  RH WIND       PRES   REMARKS
MCCOMB         CLOUDY    59  46  62 SE5       30.14F
6HR MIN TEMP:  46; 6HR MAX TEMP:  60;

GULFPORT       SUNNY     60  41  49 SE7       30.17F
6HR MIN TEMP:  43; 6HR MAX TEMP:  60;

BILOXI         SUNNY     61  44  53 SE6       30.17F
6HR MIN TEMP:  44; 6HR MAX TEMP:  61;

PASCAGOULA     SUNNY     63  41  44 VRB6      30.16F
6HR MIN TEMP:  37; 6HR MAX TEMP:  63;

STENNIS ARPT*  MOSUNNY   61  39  44 E9        30.17F

$$

COASTAL OBSERVATIONS
LAKE AND NEARSHORE STATIONS

STATION/POSITION TIME  TEMP    WIND        PRES    WAVE
                       AIR SEA DIR/SP/G            HT/PER
                 (UTC) (F)     (DEG/KT/KT) (MB)    (FT/S)
PASCAGOULA       1800   60     110/  5/  7 1021.1
WAVELAND YACHT   1800   56     120/  8/  9 1021.0
GRAND ISLE       1800   64 61   90/  8/ 12 1021.3
SOUTHWEST PASS   1800   66                 1021.3
NEW CANAL        1800   65 58  190/  1/  5 1021.2
SHELL BEACH      1800   60 60  100/ 12/ 14 1021.0

OFFSHORE STATIONS

STATION/POSITION TIME  TEMP    WIND        PRES    WAVE
                       AIR SEA DIR/SP/G            HT/PER
                 (UTC) (F)     (DEG/KT/KT) (MB)    (FT/S)
64 S DAUPHIN ISL 1800   65 74   80/  8/ 12 1020.8    1/ 6

$$




USA.gov is the U.S. government's official web portal to all federal, state and local government web resources and services.